QPF
0.00 0.00 0.00 0.00 0.00 0.00 0.00 0.00 0.00 0.00 0.00 0.00 0.00 0.00 0.00 0.00 0.00 0.00 0.00 0.00 0.00 0.00 0.00 0.00 0.00 0.00 0.00 0.00 0.00 0.00 0.00 0.00 0.00 0.00 0.00 0.00 0.00 0.00 0.00 0.01 0.03 0.13 0.17 0.13 0.00
0.00 0.00 0.00 0.00 0.00 0.00 0.00 0.00 0.00 0.00 0.00 0.00 0.00 0.00 0.00 0.00 0.00 0.00 0.00 0.00 0.00 0.00 0.00 0.00 0.00 0.00 0.00 0.00 0.00 0.00 0.00 0.00 0.00 0.00 0.00 0.00 0.00 0.01 0.01 0.05 0.12 0.27 0.29 0.15 0.02
0.00 0.00 0.00 0.00 0.00 0.00 0.00 0.00 0.00 0.00 0.00 0.00 0.00 0.00 0.00 0.00 0.00 0.00 0.00 0.00 0.00 0.00 0.00 0.00 0.00 0.00 0.00 0.00 0.00 0.00 0.00 0.00 0.00 0.00 0.00 0.00 0.00 0.02 0.02 0.02 0.06 0.19 0.21 0.11 0.03
0.00 0.00 0.00 0.00 0.00 0.00 0.00 0.00 0.00 0.00 0.00 0.00 0.00 0.00 0.00 0.00 0.00 0.00 0.00 0.00 0.00 0.00 0.00 0.00 0.00 0.00 0.00 0.00 0.00 0.00 0.00 0.00 0.00 0.00 0.00 0.00 0.00 0.00 0.01 0.03 0.00 0.05 0.13 0.08 0.01
0.00 0.00 0.00 0.00 0.00 0.00 0.00 0.00 0.00 0.00 0.00 0.00 0.00 0.00 0.00 0.00 0.00 0.00 0.00 0.00 0.00 0.00 0.00 0.00 0.00 0.00 0.00 0.00 0.00 0.00 0.00 0.00 0.00 0.00 0.00 0.00 0.00 0.00 0.00 0.00 0.00 0.01 0.02 0.01 0.00
0.00 0.00 0.00 0.00 0.00 0.00 0.00 0.00 0.00 0.00 0.00 0.00 0.00 0.00 0.00 0.00 0.00 0.00 0.00 0.00 0.00 0.00 0.00 0.00 0.00 0.00 0.00 0.00 0.00 0.00 0.00 0.00 0.00 0.00 0.00 0.00 0.00 0.00 0.00 0.00 0.00 0.00 0.00 0.00 0.00
0.00 0.00 0.00 0.00 0.00 0.00 0.00 0.00 0.00 0.00 0.00 0.00 0.00 0.00 0.00 0.00 0.00 0.00 0.00 0.00 0.00 0.00 0.00 0.00 0.00 0.00 0.00 0.00 0.00 0.00 0.00 0.00 0.00 0.00 0.00 0.00 0.00 0.00 0.00 0.00 0.00 0.00 0.00 0.00 0.00
0.00 0.00 0.00 0.00 0.00 0.00 0.00 0.00 0.00 0.00 0.00 0.00 0.00 0.00 0.00 0.00 0.00 0.00 0.00 0.00 0.00 0.00 0.00 0.00 0.00 0.00 0.00 0.00 0.00 0.00 0.00 0.00 0.00 0.00 0.00 0.00 0.00 0.00 0.00 0.00 0.00 0.00 0.00 0.00 0.00
0.00 0.00 0.00 0.00 0.00 0.00 0.00 0.00 0.00 0.00 0.00 0.00 0.00 0.00 0.00 0.00 0.00 0.00 0.00 0.00 0.00 0.00 0.00 0.00 0.00 0.00 0.00 0.00 0.00 0.00 0.00 0.00 0.00 0.00 0.00 0.00 0.00 0.00 0.00 0.00 0.00 0.00 0.00 0.00 0.00
0.00 0.00 0.00 0.00 0.00 0.00 0.00 0.00 0.00 0.00 0.00 0.00 0.00 0.00 0.00 0.00 0.00 0.00 0.00 0.00 0.00 0.00 0.00 0.00 0.00 0.00 0.00 0.00 0.00 0.00 0.00 0.00 0.00 0.00 0.00 0.00 0.00 0.00 0.00 0.00 0.00 0.00 0.00 0.00 0.01
0.00 0.00 0.00 0.00 0.00 0.00 0.00 0.00 0.00 0.00 0.00 0.00 0.00 0.00 0.00 0.00 0.00 0.00 0.00 0.00 0.00 0.00 0.00 0.00 0.00 0.00 0.00 0.00 0.00 0.00 0.00 0.00 0.00 0.00 0.00 0.00 0.00 0.00 0.00 0.00 0.00 0.00 0.00 0.03 0.06
0.00 0.00 0.00 0.00 0.00 0.00 0.00 0.00 0.00 0.00 0.00 0.00 0.00 0.00 0.00 0.00 0.00 0.00 0.00 0.00 0.00 0.00 0.00 0.00 0.00 0.00 0.00 0.00 0.00 0.00 0.00 0.00 0.00 0.00 0.00 0.00 0.00 0.00 0.00 0.00 0.00 0.00 0.01 0.05 0.04
0.00 0.00 0.00 0.00 0.00 0.00 0.00 0.00 0.00 0.00 0.00 0.00 0.00 0.00 0.00 0.00 0.00 0.00 0.00 0.00 0.00 0.00 0.00 0.00 0.00 0.00 0.00 0.00 0.00 0.00 0.00 0.00 0.00 0.00 0.00 0.00 0.00 0.00 0.00 0.00 0.02 0.05 0.10 0.09 0.04
0.00 0.00 0.00 0.00 0.00 0.00 0.00 0.00 0.00 0.00 0.00 0.00 0.00 0.00 0.00 0.00 0.00 0.00 0.00 0.00 0.00 0.00 0.00 0.00 0.00 0.00 0.00 0.00 0.00 0.00 0.00 0.00 0.00 0.00 0.00 0.00 0.00 0.00 0.00 0.00 0.05 0.16 0.15 0.06 0.01
0.00 0.00 0.00 0.00 0.00 0.00 0.00 0.00 0.00 0.00 0.00 0.00 0.00 0.00 0.00 0.00 0.00 0.00 0.00 0.00 0.00 0.00 0.00 0.00 0.00 0.00 0.00 0.00 0.00 0.00 0.00 0.00 0.00 0.00 0.00 0.00 0.00 0.00 0.00 0.00 0.01 0.09 0.22 0.25 0.12
0.00 0.00 0.00 0.00 0.00 0.00 0.00 0.00 0.00 0.00 0.00 0.00 0.00 0.00 0.00 0.00 0.00 0.00 0.00 0.00 0.00 0.00 0.00 0.00 0.00 0.00 0.00 0.00 0.00 0.00 0.00 0.00 0.00 0.00 0.00 0.00 0.00 0.00 0.00 0.00 0.00 0.00 0.02 0.05 0.08
0.00 0.00 0.00 0.00 0.00 0.00 0.00 0.00 0.00 0.00 0.00 0.00 0.00 0.00 0.00 0.00 0.00 0.00 0.00 0.00 0.00 0.00 0.00 0.00 0.00 0.00 0.00 0.00 0.00 0.00 0.00 0.00 0.00 0.00 0.00 0.00 0.00 0.00 0.00 0.00 0.00 0.00 0.00 0.00 0.00
0.00 0.00 0.00 0.00 0.00 0.00 0.00 0.00 0.00 0.00 0.00 0.00 0.00 0.00 0.00 0.00 0.00 0.00 0.00 0.00 0.00 0.00 0.00 0.00 0.00 0.00 0.00 0.00 0.00 0.00 0.00 0.00 0.00 0.00 0.00 0.00 0.00 0.00 0.01 0.00 0.00 0.00 0.00 0.00 0.00
0.00 0.00 0.00 0.00 0.00 0.00 0.00 0.00 0.00 0.00 0.00 0.00 0.00 0.00 0.00 0.00 0.00 0.00 0.00 0.00 0.00 0.00 0.00 0.00 0.00 0.00 0.00 0.00 0.00 0.00 0.00 0.00 0.00 0.00 0.00 0.00 0.00 0.00 0.01 0.01 0.00 0.00 0.00 0.00 0.02
0.00 0.00 0.00 0.00 0.00 0.00 0.00 0.00 0.00 0.00 0.00 0.00 0.00 0.00 0.00 0.00 0.00 0.00 0.00 0.00 0.00 0.00 0.00 0.00 0.00 0.00 0.00 0.00 0.00 0.00 0.00 0.00 0.00 0.00 0.00 0.00 0.00 0.00 0.00 0.00 0.00 0.00 0.00 0.00 0.01
0.00 0.00 0.00 0.00 0.00 0.00 0.00 0.00 0.00 0.00 0.00 0.00 0.00 0.00 0.00 0.00 0.00 0.00 0.00 0.00 0.00 0.00 0.00 0.00 0.00 0.00 0.00 0.00 0.00 0.00 0.00 0.00 0.00 0.00 0.01 0.01 0.02 0.00 0.00 0.00 0.00 0.00 0.00 0.00 0.00
0.00 0.00 0.00 0.00 0.00 0.00 0.00 0.00 0.00 0.00 0.00 0.00 0.00 0.00 0.00 0.00 0.00 0.00 0.00 0.00 0.00 0.00 0.00 0.00 0.00 0.00 0.00 0.00 0.00 0.00 0.00 0.00 0.00 0.00 0.00 0.01 0.01 0.00 0.00 0.00 0.00 0.00 0.00 0.00 0.00
0.00 0.00 0.00 0.00 0.00 0.00 0.00 0.00 0.00 0.00 0.00 0.00 0.00 0.00 0.00 0.00 0.00 0.00 0.00 0.00 0.00 0.00 0.00 0.00 0.00 0.00 0.00 0.00 0.00 0.00 0.00 0.00 0.00 0.00 0.00 0.00 0.01 0.00 0.00 0.00 0.00 0.00 0.00 0.00 0.00
0.00 0.00 0.00 0.00 0.00 0.00 0.00 0.00 0.00 0.00 0.00 0.00 0.00 0.00 0.00 0.00 0.00 0.00 0.00 0.00 0.00 0.00 0.00 0.00 0.00 0.00 0.00 0.00 0.00 0.00 0.00 0.00 0.00 0.00 0.00 0.00 0.00 0.00 0.00 0.00 0.00 0.00 0.00 0.00 0.00
0.00 0.00 0.00 0.00 0.00 0.00 0.00 0.00 0.00 0.00 0.00 0.00 0.00 0.00 0.00 0.00 0.00 0.00 0.00 0.00 0.00 0.00 0.00 0.00 0.00 0.00 0.00 0.00 0.00 0.00 0.00 0.00 0.00 0.00 0.00 0.00 0.00 0.00 0.00 0.00 0.00 0.00 0.00 0.00 0.00
0.00 0.00 0.00 0.00 0.00 0.00 0.00 0.00 0.00 0.00 0.00 0.00 0.00 0.00 0.00 0.00 0.00 0.00 0.00 0.00 0.00 0.00 0.00 0.00 0.00 0.00 0.00 0.00 0.00 0.00 0.00 0.00 0.00 0.00 0.00 0.00 0.00 0.00 0.00 0.00 0.00 0.00 0.01 0.00 0.00
0.00 0.00 0.00 0.00 0.00 0.00 0.00 0.00 0.00 0.00 0.00 0.00 0.00 0.00 0.00 0.00 0.00 0.00 0.00 0.00 0.00 0.00 0.00 0.00 0.00 0.00 0.00 0.00 0.00 0.00 0.00 0.00 0.00 0.00 0.00 0.00 0.00 0.00 0.00 0.00 0.00 0.00 0.00 0.00 0.00
MSLP
1018.24 1017.89 1017.59 1017.13 1016.90 1016.59 1016.54 1016.39 1016.15 1015.79 1015.40 1014.99 1014.73 1014.45 1014.12 1013.71 1012.91 1012.65 1011.48 1008.16 1008.30 1007.94 1008.57 1008.57 1008.71 1008.82 1009.05 1009.25 1009.18 1009.51 1010.56 1010.53 1009.43 1008.65 1008.27 1008.79 1009.12 1009.09 1009.52 1009.50 1010.79 1012.53 1013.53 1012.31 1010.82
1017.96 1017.57 1017.32 1016.89 1016.63 1016.44 1016.46 1016.26 1016.03 1015.66 1015.34 1014.89 1014.50 1014.28 1013.92 1013.51 1013.00 1011.35 1007.37 1007.30 1007.48 1007.75 1008.47 1008.47 1008.46 1008.66 1009.11 1009.10 1008.90 1009.37 1009.87 1009.59 1008.34 1007.87 1007.57 1008.24 1008.41 1008.69 1009.49 1010.28 1012.47 1014.13 1013.03 1011.30 1011.32
1017.54 1017.20 1016.86 1016.82 1016.35 1016.38 1016.21 1016.04 1015.83 1015.54 1015.14 1014.76 1014.33 1014.08 1013.77 1013.51 1012.61 1008.49 1006.49 1006.59 1007.19 1007.63 1007.97 1008.05 1008.30 1008.52 1008.99 1008.95 1008.75 1008.56 1008.63 1008.24 1007.16 1006.85 1006.96 1007.33 1008.13 1008.85 1009.40 1010.49 1011.87 1013.82 1010.89 1012.46 1012.37
1017.17 1016.90 1016.62 1016.57 1016.18 1016.14 1015.88 1015.79 1015.61 1015.33 1014.91 1014.61 1014.12 1013.85 1013.52 1013.53 1011.07 1006.97 1006.46 1006.46 1007.05 1007.45 1007.93 1007.92 1008.08 1008.40 1008.75 1008.82 1008.10 1008.52 1007.60 1007.21 1006.32 1005.92 1006.14 1006.52 1007.34 1008.71 1009.00 1009.33 1010.64 1012.02 1012.22 1010.71 1011.41
1016.92 1016.68 1016.47 1016.26 1016.02 1015.88 1015.62 1015.53 1015.28 1015.03 1014.57 1014.41 1013.93 1013.69 1013.27 1012.63 1009.65 1006.52 1006.69 1006.91 1007.13 1007.44 1007.59 1007.79 1007.89 1008.06 1008.23 1007.84 1007.76 1007.75 1007.10 1006.30 1005.61 1005.55 1005.75 1006.10 1007.05 1008.38 1009.60 1009.66 1010.04 1010.00 1010.63 1009.83 1010.26
1016.66 1016.31 1016.26 1015.90 1015.72 1015.51 1015.29 1015.13 1014.94 1014.65 1014.28 1014.16 1013.74 1013.77 1013.43 1011.46 1006.83 1006.20 1006.66 1007.19 1007.04 1007.23 1007.22 1007.43 1007.32 1007.58 1007.58 1007.52 1007.61 1006.66 1006.42 1005.76 1005.05 1004.92 1005.03 1005.84 1007.84 1007.74 1010.72 1010.18 1009.51 1008.50 1007.21 1006.69 1007.82
1016.40 1016.18 1015.83 1015.60 1015.32 1015.12 1014.94 1014.70 1014.60 1014.19 1014.00 1013.80 1013.73 1013.62 1012.79 1009.10 1006.59 1006.59 1006.80 1006.59 1006.25 1006.64 1006.75 1006.57 1006.65 1007.45 1007.23 1007.03 1006.35 1006.38 1006.04 1005.25 1004.52 1004.14 1004.33 1004.76 1007.48 1008.18 1008.62 1009.82 1009.45 1008.23 1007.07 1007.52 1007.60
1016.06 1015.69 1015.43 1015.25 1015.06 1014.84 1014.44 1014.28 1014.03 1013.60 1013.52 1013.51 1013.68 1013.39 1011.22 1006.86 1006.53 1006.70 1006.29 1006.08 1005.92 1005.93 1006.00 1005.67 1006.12 1006.77 1006.93 1006.71 1006.40 1006.55 1006.41 1006.04 1004.49 1004.18 1003.57 1004.45 1005.81 1006.80 1007.81 1008.78 1008.76 1008.16 1007.78 1007.41 1006.98
1015.61 1015.34 1015.26 1015.03 1014.72 1014.46 1014.15 1013.70 1013.24 1012.94 1013.21 1013.53 1013.64 1012.87 1009.63 1006.40 1005.99 1004.84 1005.15 1005.40 1005.30 1005.51 1005.53 1005.24 1005.75 1006.64 1006.78 1007.31 1007.65 1007.30 1007.09 1006.47 1004.90 1003.97 1003.78 1004.18 1005.13 1006.52 1007.33 1007.60 1007.57 1007.50 1007.31 1006.73 1006.70
1015.27 1015.10 1014.88 1014.72 1014.63 1014.26 1013.43 1012.55 1012.59 1012.72 1013.00 1013.09 1012.60 1012.28 1008.45 1006.07 1004.86 1004.43 1004.32 1004.71 1005.21 1005.31 1005.78 1005.90 1006.62 1007.31 1007.88 1008.41 1008.51 1007.62 1007.16 1006.37 1005.56 1003.93 1003.70 1004.11 1004.58 1005.89 1006.86 1007.25 1006.72 1006.75 1006.95 1007.01 1007.11
1014.95 1014.79 1014.64 1014.56 1014.25 1013.71 1012.69 1012.55 1012.75 1012.51 1012.11 1010.62 1009.66 1008.81 1006.69 1005.05 1004.06 1004.16 1004.21 1004.67 1005.03 1005.48 1006.28 1006.66 1007.59 1007.74 1007.45 1007.52 1007.27 1007.31 1007.07 1006.41 1004.87 1003.74 1004.24 1004.00 1004.51 1005.15 1005.87 1006.35 1006.96 1006.82 1006.99 1007.53 1007.45
1014.70 1014.51 1014.31 1013.98 1013.77 1013.71 1013.85 1012.90 1010.89 1010.33 1009.68 1008.28 1007.62 1007.27 1005.76 1005.39 1004.74 1004.03 1004.10 1005.00 1005.31 1006.05 1006.65 1007.47 1007.53 1006.57 1006.33 1006.83 1007.35 1007.31 1006.93 1006.29 1005.10 1003.85 1004.03 1003.87 1004.30 1004.45 1005.96 1006.26 1005.90 1005.90 1006.99 1007.43 1007.77
1014.37 1014.13 1013.91 1013.75 1013.61 1013.86 1013.09 1011.03 1008.81 1009.24 1009.46 1007.06 1005.99 1005.35 1004.51 1004.68 1004.49 1003.98 1004.24 1004.71 1005.40 1006.10 1006.54 1007.43 1007.27 1006.65 1007.05 1007.32 1007.24 1007.00 1007.93 1007.44 1006.17 1004.35 1003.88 1004.33 1005.02 1005.31 1006.57 1007.14 1006.45 1006.82 1005.74 1006.77 1006.92
1014.09 1013.87 1013.70 1013.54 1013.84 1013.03 1011.66 1008.94 1008.66 1009.25 1009.26 1006.91 1005.03 1003.71 1003.73 1003.99 1004.12 1003.58 1004.04 1004.62 1005.37 1006.07 1006.54 1007.44 1007.55 1006.97 1007.17 1007.52 1007.60 1007.35 1007.35 1006.60 1005.84 1005.53 1005.71 1005.67 1007.03 1008.34 1008.80 1008.86 1009.94 1010.54 1010.13 1009.17 1004.39
1013.97 1013.81 1013.76 1013.68 1013.82 1012.53 1009.48 1009.00 1008.88 1008.94 1008.70 1006.33 1004.90 1003.61 1003.66 1004.30 1004.37 1004.41 1004.55 1004.60 1006.06 1006.70 1007.27 1008.55 1007.97 1007.83 1007.91 1008.59 1008.05 1008.18 1007.46 1007.12 1006.96 1006.79 1007.09 1009.08 1009.77 1011.33 1011.15 1010.79 1011.09 1011.31 1011.54 1010.76 1009.06
1013.88 1013.60 1013.58 1013.76 1013.59 1010.41 1009.53 1009.08 1008.87 1009.57 1008.35 1007.11 1005.92 1005.11 1005.21 1005.19 1005.48 1005.64 1006.28 1005.90 1006.79 1007.49 1008.42 1008.96 1008.75 1008.80 1009.18 1008.82 1008.60 1008.25 1008.03 1007.95 1008.09 1008.50 1009.50 1011.31 1011.94 1013.41 1013.20 1013.82 1013.15 1012.59 1011.60 1010.07 1008.94
1013.63 1013.38 1013.43 1012.63 1011.05 1009.52 1009.44 1009.50 1010.06 1009.90 1008.70 1008.37 1007.54 1007.06 1007.18 1007.19 1007.06 1007.39 1008.35 1008.86 1009.59 1009.81 1010.63 1010.20 1010.14 1010.02 1009.72 1009.17 1009.01 1009.12 1009.75 1010.93 1011.12 1011.50 1011.91 1011.87 1012.57 1013.97 1014.48 1014.56 1014.34 1013.82 1012.77 1010.90 1008.57
1013.12 1013.09 1012.12 1011.01 1009.91 1010.14 1010.44 1010.56 1010.70 1010.26 1009.82 1009.21 1008.69 1008.23 1008.56 1008.81 1008.99 1009.17 1009.87 1010.59 1011.03 1011.42 1012.20 1012.35 1011.71 1011.40 1011.44 1011.34 1011.14 1010.99 1011.66 1013.09 1013.97 1014.27 1013.55 1012.70 1013.13 1014.39 1014.55 1014.59 1014.44 1013.49 1013.13 1012.09 1010.37
1012.11 1012.25 1011.82 1008.86 1009.69 1010.36 1011.17 1011.53 1011.12 1010.53 1010.30 1009.97 1009.46 1009.51 1010.04 1009.93 1009.99 1010.38 1011.03 1011.62 1012.22 1012.40 1013.19 1013.66 1013.33 1012.66 1012.27 1012.05 1012.17 1012.12 1012.92 1013.10 1014.43 1014.93 1015.31 1014.07 1013.22 1013.44 1013.91 1013.86 1014.21 1013.46 1013.06 1013.08 1012.49
1012.28 1011.75 1010.28 1007.77 1008.76 1009.89 1011.15 1011.42 1010.92 1010.47 1010.24 1010.26 1010.62 1010.75 1011.09 1011.22 1011.31 1011.38 1011.64 1011.98 1012.46 1012.80 1013.06 1014.60 1014.64 1014.09 1013.20 1012.68 1012.85 1013.38 1013.79 1014.21 1015.46 1016.42 1016.28 1014.94 1015.05 1015.86 1015.32 1015.49 1015.56 1015.29 1015.15 1014.04 1014.08
1012.49 1011.69 1008.24 1007.83 1008.42 1010.22 1011.32 1011.04 1010.81 1010.45 1010.25 1010.62 1011.04 1011.42 1011.99 1012.16 1012.12 1012.12 1012.27 1012.40 1012.46 1013.27 1013.51 1014.73 1015.70 1015.55 1014.71 1014.50 1014.68 1014.62 1015.24 1015.99 1016.75 1017.13 1017.19 1016.85 1016.95 1017.07 1017.09 1016.82 1016.47 1016.30 1015.43 1015.25 1015.80
1012.76 1011.84 1008.02 1007.76 1009.51 1010.89 1011.04 1010.41 1010.43 1010.56 1010.45 1010.75 1011.14 1011.64 1012.16 1012.37 1012.55 1012.54 1012.66 1012.55 1012.73 1012.99 1014.21 1015.00 1016.34 1016.92 1016.31 1015.45 1015.21 1015.73 1016.44 1016.96 1017.83 1018.04 1017.96 1017.69 1017.83 1017.58 1017.79 1017.83 1017.22 1017.01 1016.44 1016.49 1016.09
1013.34 1011.75 1008.49 1008.57 1010.38 1011.38 1010.88 1010.54 1010.34 1010.47 1010.78 1011.03 1011.39 1011.64 1012.04 1012.61 1012.91 1012.74 1012.64 1012.97 1012.76 1013.34 1014.26 1015.15 1016.62 1017.40 1016.98 1016.41 1015.80 1016.36 1016.80 1017.05 1017.55 1018.02 1018.27 1018.57 1018.10 1017.86 1018.04 1018.28 1017.96 1017.51 1017.25 1017.32 1017.27
1013.66 1012.78 1011.29 1010.90 1011.26 1011.28 1011.19 1010.92 1010.68 1010.39 1010.80 1010.97 1011.29 1011.60 1012.12 1012.61 1012.93 1013.15 1013.24 1013.27 1013.18 1013.59 1014.31 1015.00 1016.84 1017.72 1017.93 1017.40 1016.96 1016.73 1017.23 1017.41 1017.90 1018.84 1019.11 1018.72 1018.62 1018.45 1018.86 1018.96 1018.54 1018.08 1018.06 1017.84 1017.84
1013.95 1013.99 1013.43 1012.93 1012.30 1011.75 1011.30 1010.87 1010.68 1010.67 1010.77 1011.08 1011.44 1011.87 1012.40 1012.95 1013.21 1013.36 1013.59 1013.68 1013.70 1014.27 1014.81 1015.69 1017.12 1017.39 1017.30 1016.94 1016.84 1017.08 1017.63 1017.90 1018.33 1018.76 1019.17 1019.06 1018.92 1018.81 1019.01 1019.22 1019.04 1018.66 1018.40 1018.47 1018.38
1015.31 1015.18 1014.20 1013.63 1012.71 1012.08 1011.65 1011.04 1010.71 1010.73 1010.88 1011.31 1011.59 1011.99 1012.36 1013.01 1013.43 1013.71 1013.92 1014.15 1014.34 1014.70 1015.21 1016.05 1017.02 1017.39 1017.49 1016.90 1016.99 1017.40 1017.54 1017.80 1018.21 1018.39 1018.64 1018.75 1018.62 1018.49 1018.83 1018.87 1018.82 1018.81 1018.80 1018.68 1018.67
1016.17 1015.36 1015.07 1014.13 1013.50 1012.85 1011.91 1010.93 1010.56 1010.48 1010.66 1010.76 1011.31 1011.94 1012.41 1012.89 1013.13 1013.32 1013.61 1013.99 1014.25 1014.78 1015.56 1016.27 1017.00 1018.02 1018.09 1017.25 1017.18 1017.73 1017.38 1017.41 1017.67 1017.92 1018.25 1018.54 1018.19 1017.92 1018.46 1018.77 1018.89 1018.80 1018.67 1018.74 1018.79
Thickness
5739 5741 5743 5745 5745 5745 5743 5743 5743 5744 5747 5750 5752 5755 5757 5761 5768 5768 5774 5802 5803 5807 5803 5802 5800 5798 5797 5786 5793 5789 5749 5741 5758 5771 5775 5777 5769 5785 5788 5784 5782 5755 5750 5768 5797
5736 5738 5739 5740 5741 5741 5739 5738 5738 5740 5743 5746 5749 5751 5754 5758 5761 5768 5808 5808 5807 5805 5795 5791 5786 5792 5779 5779 5783 5769 5744 5757 5779 5787 5783 5775 5777 5780 5774 5768 5748 5730 5747 5768 5784
5734 5736 5737 5735 5738 5737 5736 5736 5736 5737 5740 5743 5745 5748 5751 5753 5758 5785 5810 5811 5806 5803 5797 5794 5790 5786 5773 5776 5777 5776 5759 5776 5791 5792 5793 5785 5770 5776 5768 5754 5743 5714 5714 5749 5764
5731 5732 5734 5732 5735 5733 5734 5733 5734 5735 5738 5740 5744 5745 5748 5749 5745 5797 5807 5808 5803 5800 5792 5787 5783 5774 5766 5766 5775 5764 5782 5784 5793 5798 5793 5789 5777 5765 5771 5770 5761 5748 5754 5766 5768
5728 5729 5729 5730 5731 5730 5731 5731 5732 5734 5737 5737 5741 5742 5747 5746 5760 5800 5800 5799 5798 5794 5786 5779 5774 5771 5761 5771 5773 5769 5779 5790 5799 5794 5791 5791 5772 5754 5752 5764 5768 5775 5763 5775 5782
5724 5726 5726 5728 5728 5728 5729 5729 5730 5733 5736 5736 5738 5737 5739 5735 5793 5799 5797 5791 5791 5787 5784 5779 5775 5775 5772 5769 5765 5780 5781 5788 5797 5794 5795 5777 5755 5763 5742 5758 5767 5784 5798 5801 5795
5721 5722 5724 5725 5726 5726 5727 5729 5728 5732 5734 5734 5734 5733 5734 5751 5792 5791 5790 5790 5793 5787 5779 5786 5786 5774 5774 5765 5782 5781 5774 5783 5794 5800 5797 5794 5744 5744 5758 5753 5763 5776 5796 5794 5794
5719 5721 5721 5722 5723 5724 5727 5728 5729 5733 5733 5732 5729 5729 5733 5784 5786 5784 5788 5786 5790 5791 5787 5792 5787 5773 5770 5775 5768 5762 5762 5746 5777 5786 5795 5783 5751 5761 5763 5754 5753 5768 5779 5784 5793
5717 5718 5718 5719 5721 5722 5725 5729 5732 5735 5731 5727 5725 5726 5735 5783 5776 5792 5791 5780 5786 5785 5785 5791 5781 5763 5761 5742 5727 5739 5726 5738 5755 5786 5782 5777 5761 5758 5763 5763 5765 5767 5775 5782 5783
5715 5716 5717 5717 5717 5720 5727 5735 5734 5732 5728 5725 5728 5719 5751 5762 5780 5788 5793 5786 5773 5773 5764 5763 5745 5731 5722 5712 5693 5716 5725 5732 5738 5771 5779 5769 5766 5760 5761 5759 5767 5769 5773 5774 5776
5713 5713 5714 5714 5717 5721 5731 5731 5729 5726 5725 5735 5740 5740 5758 5778 5790 5779 5786 5775 5770 5758 5733 5743 5719 5707 5720 5723 5731 5729 5725 5723 5752 5773 5760 5758 5760 5760 5763 5762 5758 5763 5763 5759 5764
5712 5713 5714 5716 5717 5718 5716 5720 5731 5737 5723 5748 5749 5747 5764 5767 5754 5767 5779 5752 5747 5724 5732 5718 5705 5734 5738 5733 5721 5719 5716 5719 5738 5762 5748 5756 5756 5771 5753 5754 5763 5767 5756 5756 5751
5712 5713 5714 5714 5715 5713 5716 5729 5752 5745 5715 5742 5756 5755 5761 5763 5750 5755 5764 5751 5737 5725 5722 5705 5717 5736 5725 5716 5715 5715 5696 5701 5712 5747 5756 5751 5733 5751 5749 5743 5758 5753 5765 5755 5750
5712 5713 5713 5714 5712 5716 5720 5747 5748 5741 5692 5719 5745 5759 5765 5762 5742 5770 5766 5752 5738 5722 5723 5712 5720 5719 5709 5702 5706 5693 5713 5720 5726 5723 5703 5740 5688 5712 5713 5713 5705 5700 5709 5726 5764
5711 5711 5711 5711 5707 5712 5738 5744 5745 5733 5665 5732 5743 5778 5765 5746 5748 5746 5763 5750 5720 5721 5716 5697 5704 5700 5694 5690 5703 5689 5711 5711 5718 5713 5710 5681 5673 5666 5687 5689 5690 5690 5691 5701 5710
5711 5711 5711 5708 5706 5731 5738 5741 5736 5687 5670 5714 5735 5732 5728 5736 5734 5738 5731 5742 5732 5716 5708 5700 5708 5698 5690 5697 5697 5700 5697 5695 5696 5690 5663 5664 5658 5632 5651 5655 5667 5676 5686 5700 5711
5713 5713 5711 5715 5721 5738 5737 5726 5682 5664 5714 5697 5705 5716 5711 5705 5711 5712 5697 5689 5677 5671 5662 5678 5678 5683 5683 5675 5686 5677 5658 5634 5641 5636 5641 5664 5654 5634 5639 5645 5653 5658 5666 5686 5706
5717 5716 5722 5728 5736 5732 5724 5699 5669 5692 5687 5705 5706 5705 5691 5695 5693 5690 5679 5665 5673 5666 5644 5636 5635 5658 5663 5653 5647 5651 5647 5616 5604 5611 5622 5660 5642 5625 5637 5641 5645 5656 5657 5667 5681
5724 5722 5723 5744 5736 5727 5704 5667 5670 5685 5693 5689 5694 5682 5673 5686 5686 5676 5665 5660 5661 5661 5638 5623 5632 5655 5653 5649 5645 5641 5621 5634 5611 5618 5603 5622 5650 5639 5635 5637 5636 5644 5650 5650 5654
5720 5721 5725 5749 5739 5721 5687 5674 5686 5697 5696 5689 5667 5673 5659 5663 5663 5657 5659 5663 5656 5659 5653 5631 5613 5634 5641 5646 5639 5624 5629 5609 5591 5580 5579 5607 5609 5593 5610 5612 5612 5619 5619 5634 5633
5717 5708 5738 5744 5737 5702 5672 5679 5687 5696 5694 5679 5668 5660 5656 5653 5655 5648 5651 5657 5659 5648 5645 5630 5611 5609 5620 5614 5607 5605 5595 5593 5588 5582 5573 5569 5574 5585 5587 5590 5595 5601 5612 5615 5611
5706 5691 5740 5742 5693 5678 5675 5690 5691 5686 5687 5679 5674 5664 5654 5654 5648 5646 5642 5647 5656 5651 5629 5629 5597 5588 5598 5609 5608 5598 5587 5576 5557 5566 5565 5566 5562 5573 5571 5573 5581 5584 5591 5592 5596
5689 5692 5732 5727 5670 5669 5685 5688 5688 5681 5675 5671 5664 5666 5663 5648 5637 5643 5646 5647 5650 5639 5625 5620 5588 5570 5577 5586 5596 5585 5585 5582 5571 5558 5558 5551 5554 5566 5564 5560 5562 5569 5575 5575 5578
5685 5673 5687 5694 5680 5676 5673 5672 5670 5684 5673 5672 5666 5664 5654 5644 5642 5632 5631 5636 5640 5634 5629 5617 5587 5576 5559 5570 5577 5579 5574 5572 5561 5541 5542 5552 5551 5552 5546 5543 5545 5554 5557 5560 5558
5676 5665 5668 5653 5667 5671 5672 5673 5665 5660 5671 5667 5657 5652 5643 5631 5629 5625 5626 5623 5627 5622 5614 5600 5581 5586 5582 5583 5581 5572 5563 5562 5555 5551 5539 5543 5543 5544 5542 5533 5532 5538 5543 5544 5544
5653 5648 5654 5651 5662 5667 5658 5663 5661 5658 5657 5648 5646 5646 5638 5626 5622 5616 5618 5613 5609 5610 5604 5593 5576 5583 5574 5583 5576 5562 5562 5560 5556 5554 5549 5541 5540 5543 5537 5532 5530 5527 5530 5531 5532
5646 5647 5642 5643 5646 5644 5644 5657 5659 5660 5661 5656 5648 5637 5632 5625 5629 5625 5619 5611 5609 5600 5589 5582 5572 5560 5558 5575 5574 5550 5555 5556 5556 5555 5547 5534 5540 5547 5538 5528 5525 5523 5521 5522 5521